Weather History for Harbor Springs, MI

Change the Weather History Date:

Sunday, November 17, 2013

  Actual Average (KPLN) Record (KPLN)
Temperature  
Mean Temperature 53 °F -  
Max Temperature 61 °F 42 °F 70 °F (1953)
Min Temperature 44 °F 29 °F 9 °F (1959)
Degree Days  
Heating Degree Days 12    
Growing Degree Days 3 (Base 50)    
Moisture  
Dew Point 53 °F    
Average Humidity 92    
Maximum Humidity 97    
Minimum Humidity 86    
Precipitation  
Precipitation 0.00 in - - ()
Sea Level Pressure  
Sea Level Pressure 29.29 in    
Wind  
Wind Speed 10 mph (South)    
Max Wind Speed 18 mph    
Max Gust Speed 39 mph    
Visibility 8 miles    
Events Rain    
Averages and records for this station are not official NWS values.
T = Trace of Precipitation, MM = Missing Value Source: NWS Daily Summary

Daily Weather History Graph

Daily Weather History Graph

Search for Another Location

Airport:

Trip Planner

Search our weather history database for the weather conditions in past years. The results will help you decide how hot, cold, wet, or windy it might be!

Date:

Astronomy

Nov. 17, 2013 Rise Set
Actual Time 7:41 AM EST 5:07 PM EST
Civil Twilight 7:09 AM EST 5:39 PM EST
Nautical Twilight 6:33 AM EST 6:15 PM EST
Astronomical Twilight 5:58 AM EST 6:50 PM EST
Moon 5:23 PM EST (11/17) 7:34 AM EST (11/17)
Length of Visible Light 10h 30m
Length of Day
9h 25m
Full, 100% of the Moon is Illuminated
Nov 17
Full
Nov 25
Last Quarter
Dec 2
New
Dec 9
First Quarter
Dec 17
Full

Hourly Weather History & Observations

Time (EST) Temp. Windchill Dew Point Humidity Pressure Visibility Wind Dir Wind Speed Gust Speed Precip Events Conditions
12:14 AM 54.9 °F - 52.2 °F 91% 29.54 in 10.0 mi South 10.4 mph 23.0 mph N/A Rain Light Rain
12:34 AM 54.9 °F - 52.0 °F 90% 29.54 in 7.0 mi South 12.7 mph 25.3 mph N/A Rain Light Rain
12:55 AM 54.9 °F - 52.2 °F 91% 29.53 in 10.0 mi South 12.7 mph 19.6 mph N/A   Overcast
1:14 AM 54.9 °F - 52.0 °F 90% 29.53 in 10.0 mi South 11.5 mph 20.7 mph N/A   Overcast
1:34 AM 54.9 °F - 52.2 °F 91% 29.52 in 10.0 mi South 12.7 mph 18.4 mph N/A Rain Light Rain
1:55 AM 55.8 °F - 52.3 °F 88% 29.51 in 10.0 mi South 17.3 mph 24.2 mph N/A   Overcast
2:14 AM 57.0 °F - 53.1 °F 87% 29.51 in 10.0 mi SSW 15.0 mph 27.6 mph N/A   Overcast
2:34 AM 57.4 °F - 53.6 °F 87% 29.51 in 10.0 mi SSW 16.1 mph 25.3 mph N/A   Overcast
2:55 AM 57.4 °F - 53.6 °F 87% 29.50 in 10.0 mi South 15.0 mph 24.2 mph N/A   Overcast
3:14 AM 57.4 °F - 53.6 °F 87% 29.50 in 10.0 mi SSW 10.4 mph 21.9 mph N/A   Overcast
3:34 AM 57.4 °F - 54.0 °F 88% 29.50 in 10.0 mi SSW 12.7 mph 20.7 mph N/A   Overcast
3:55 AM 57.4 °F - 54.1 °F 89% 29.49 in 10.0 mi SSW 10.4 mph 17.3 mph N/A   Overcast
4:14 AM 57.4 °F - 54.5 °F 90% 29.50 in 10.0 mi South 10.4 mph 18.4 mph N/A Rain Light Rain
4:34 AM 57.4 °F - 54.7 °F 91% 29.50 in 10.0 mi South 8.1 mph - N/A   Overcast
4:55 AM 57.4 °F - 54.5 °F 90% 29.50 in 10.0 mi South 8.1 mph - N/A   Overcast
5:14 AM 57.4 °F - 54.5 °F 90% 29.50 in 10.0 mi South 8.1 mph - N/A   Overcast
5:34 AM 57.4 °F - 54.5 °F 90% 29.50 in 10.0 mi South 5.8 mph - N/A   Overcast
5:55 AM 57.4 °F - 54.5 °F 90% 29.50 in 10.0 mi South 5.8 mph - N/A   Overcast
6:14 AM 57.4 °F - 54.5 °F 90% 29.49 in 10.0 mi South 5.8 mph - N/A   Overcast
6:34 AM 57.4 °F - 54.5 °F 90% 29.48 in 10.0 mi South 5.8 mph - N/A   Overcast
6:55 AM 57.4 °F - 54.7 °F 91% 29.48 in 10.0 mi South 6.9 mph - N/A   Scattered Clouds
7:14 AM 57.6 °F - 54.5 °F 90% 29.48 in 10.0 mi South 5.8 mph - N/A   Mostly Cloudy
7:35 AM 57.4 °F - 54.5 °F 90% 29.48 in 10.0 mi SSW 4.6 mph - N/A   Overcast
7:54 AM 57.4 °F - 54.7 °F 91% 29.47 in 10.0 mi SSE 5.8 mph - N/A   Overcast
8:14 AM 58.1 °F - 54.9 °F 89% 29.46 in 10.0 mi South 5.8 mph - N/A   Overcast
8:35 AM 59.9 °F - 56.3 °F 88% 29.46 in 10.0 mi South 4.6 mph - N/A   Overcast
8:54 AM 59.9 °F - 55.9 °F 87% 29.46 in 10.0 mi SSE 6.9 mph - N/A   Overcast
9:14 AM 59.9 °F - 55.8 °F 86% 29.45 in 10.0 mi SSE 5.8 mph - N/A   Overcast
9:35 AM 59.9 °F - 55.8 °F 86% 29.44 in 7.0 mi SSE 6.9 mph - N/A Rain Rain
9:54 AM 58.3 °F - 55.8 °F 91% 29.43 in 5.0 mi ESE 5.8 mph - N/A   Drizzle
10:14 AM 57.6 °F - 55.6 °F 93% 29.42 in 7.0 mi SE 4.6 mph - N/A   Overcast
10:35 AM 57.9 °F - 55.8 °F 92% 29.41 in 7.0 mi SE 4.6 mph - N/A   Overcast
10:54 AM 58.8 °F - 56.5 °F 92% 29.39 in 10.0 mi SE 3.5 mph - N/A   Overcast
11:14 AM 58.1 °F - 55.9 °F 93% 29.38 in 3.0 mi ENE 3.5 mph - N/A Rain Heavy Rain
11:35 AM 57.4 °F - 55.9 °F 95% 29.36 in 2.5 mi East 4.6 mph - N/A Rain Rain
11:54 AM 57.4 °F - 56.3 °F 96% 29.33 in 2.5 mi East 5.8 mph - N/A Rain Rain
12:14 PM 57.7 °F - 56.7 °F 96% 29.28 in 5.0 mi East 6.9 mph - N/A Rain Light Rain
12:35 PM 58.5 °F - 57.0 °F 95% 29.26 in 7.0 mi SSE 11.5 mph 17.3 mph N/A Rain Rain
12:54 PM 59.2 °F - 56.8 °F 92% 29.23 in 5.0 mi SE 9.2 mph 18.4 mph N/A Rain Light Rain
1:14 PM 59.0 °F - 56.7 °F 92% 29.20 in 10.0 mi SE 11.5 mph 18.4 mph N/A   Overcast
1:35 PM 61.2 °F - 58.1 °F 90% 29.17 in 10.0 mi South 12.7 mph 23.0 mph N/A   Overcast
1:54 PM 61.3 °F - 57.6 °F 87% 29.15 in 10.0 mi South 15.0 mph 27.6 mph N/A Rain Light Rain
2:14 PM 57.4 °F - 55.0 °F 92% 29.14 in 7.0 mi West 5.8 mph - N/A Rain Rain
2:35 PM 55.2 °F - 53.8 °F 95% 29.14 in 1.8 mi NW 3.5 mph - N/A Rain Heavy Rain
2:54 PM 54.9 °F - 53.6 °F 96% 29.15 in 1.0 mi WSW 5.8 mph - N/A Rain Heavy Rain
3:14 PM 56.7 °F - 55.4 °F 96% 29.15 in 5.0 mi NNE 6.9 mph - N/A Rain Rain
3:35 PM 56.3 °F - 54.5 °F 94% 29.14 in 4.0 mi SE 3.5 mph - N/A Rain Heavy Rain
3:54 PM 55.0 °F - 53.8 °F 96% 29.14 in 5.0 mi ESE 9.2 mph - N/A Rain Rain
4:14 PM 55.0 °F - 54.0 °F 96% 29.12 in 4.0 mi East 4.6 mph - N/A Rain Heavy Rain
4:35 PM 54.9 °F - 54.1 °F 97% 29.11 in 7.0 mi East 3.5 mph - N/A Rain Heavy Rain
4:54 PM 54.9 °F - 54.1 °F 97% 29.08 in 3.0 mi ENE 3.5 mph - N/A Rain Heavy Rain
5:14 PM 54.9 °F - 54.1 °F 97% 29.06 in 4.0 mi East 5.8 mph - N/A Rain Heavy Rain
5:35 PM 54.9 °F - 54.1 °F 97% 29.06 in 10.0 mi East 5.8 mph - N/A Rain Rain
5:54 PM 54.9 °F - 54.1 °F 97% 29.05 in 10.0 mi ESE 3.5 mph - N/A Rain Rain
6:14 PM 54.9 °F - 54.1 °F 97% 29.03 in 5.0 mi ESE 3.5 mph - N/A Rain Heavy Rain
6:35 PM 54.9 °F - 53.8 °F 96% 29.02 in 7.0 mi SSW 9.2 mph - N/A Rain Rain
6:54 PM 54.9 °F - 53.8 °F 96% 29.01 in 7.0 mi SSW 9.2 mph - N/A Rain Rain
7:15 PM 51.3 °F - 50.0 °F 95% 29.00 in 5.0 mi West 11.5 mph 18.4 mph N/A Rain Rain
7:34 PM 50.7 °F - 49.3 °F 95% 28.99 in 7.0 mi WSW 5.8 mph - N/A Rain Rain
7:54 PM 50.9 °F - 50.0 °F 97% 28.98 in 7.0 mi West 6.9 mph - N/A Rain Rain
8:15 PM 50.0 °F - 48.9 °F 96% 28.98 in 10.0 mi West 12.7 mph 19.6 mph N/A   Light Drizzle
8:34 PM 50.0 °F - 48.2 °F 94% 29.00 in 10.0 mi WNW 13.8 mph 21.9 mph N/A   Overcast
8:54 PM 50.0 °F - 47.7 °F 92% 29.02 in 10.0 mi West 15.0 mph 27.6 mph N/A   Drizzle
9:15 PM 48.7 °F - 46.6 °F 92% 29.05 in 5.0 mi WNW 18.4 mph 28.8 mph N/A Rain Rain
9:34 PM 46.4 °F 40.1 °F 45.0 °F 95% 29.07 in 4.0 mi West 15.0 mph 29.9 mph N/A   Unknown
9:54 PM 46.0 °F 39.6 °F 44.6 °F 95% 29.09 in 5.0 mi West 15.0 mph 28.8 mph N/A Rain Rain
10:14 PM 45.1 °F 37.6 °F 43.9 °F 95% 29.11 in 5.0 mi West 18.4 mph 39.1 mph N/A Rain Rain
10:34 PM 46.4 °F 40.4 °F 44.8 °F 94% 29.12 in 5.0 mi West 13.8 mph 23.0 mph N/A Rain Rain
10:55 PM 46.9 °F - 45.0 °F 93% 29.13 in 7.0 mi West 13.8 mph 27.6 mph N/A Rain Heavy Rain
11:14 PM 45.3 °F 39.0 °F 43.5 °F 93% 29.15 in 7.0 mi West 13.8 mph 28.8 mph N/A Rain Heavy Rain
11:34 PM 45.1 °F 39.1 °F 42.8 °F 91% 29.17 in 10.0 mi West 12.7 mph 28.8 mph N/A Rain Rain
11:55 PM 44.4 °F 36.6 °F 41.9 °F 91% 29.20 in 10.0 mi West 18.4 mph 28.8 mph N/A Rain Light Rain